Location: Klein M�hlingen
(51.9472°N, 11.7453°E)
Time: 14:33:32
(UTC+00:00)

N. Korean satellite - Visible Passes

Search period start: 20 September 2021 00:00
Search period end: 30 September 2021 00:00
Orbit: 448 x 498 km, 97.3° (Epoch: 19 September)

Date Brightness Start Highest point End Pass type
(mag) Time Alt. Az. Time Alt. Az. Time Alt. Az.
20 Sep 8.0 04:16:37 10° NNE 04:19:58 42° E 04:23:21 10° S visible
21 Sep 9.4 03:49:18 10° NE 03:52:04 21° E 03:54:52 10° SE visible
22 Sep 10.0 03:22:53 10° ENE 03:24:04 11° E 03:25:15 10° ESE visible
23 Sep 7.4 04:26:29 10° NNE 04:29:58 55° E 04:33:28 10° S visible
24 Sep 8.9 03:59:01 10° NE 04:02:06 27° E 04:05:11 10° SSE visible
25 Sep 9.8 03:32:04 10° NE 03:34:06 15° E 03:36:09 10° SE visible
27 Sep 8.4 04:08:44 10° NNE 04:12:02 35° E 04:15:22 10° SSE visible
28 Sep 9.6 03:41:30 10° NE 03:44:05 18° E 03:46:39 10° SE visible
